Theta_e
289 289 289 289 289 289 289 288 288 288 287 287 287 286 286 286 286 286 286 286 286 285 285 286 286 286 286 286 286 286 286 286 286 286 285 286 285 286 286 285 286 286
288 288 288 288 288 288 287 287 287 287 286 286 287 286 286 286 286 286 285 285 285 285 285 285 285 284 284 285 285 285 285 285 285 286 284 285 285 285 285 285 285 285
287 288 288 287 286 286 286 287 287 287 286 286 286 286 286 286 285 285 285 285 285 284 284 284 284 284 284 284 284 284 283 283 283 284 284 284 284 284 284 284 284 284
287 287 287 287 286 286 287 286 286 286 286 285 285 285 285 285 285 284 284 284 284 283 283 283 283 283 283 283 283 283 283 283 283 283 283 283 283 283 283 283 283 283
287 287 287 286 286 287 287 286 285 285 285 284 284 284 284 284 284 284 283 283 283 283 283 283 283 282 282 282 282 282 282 282 283 282 282 282 283 282 282 282 282 281
287 286 286 286 286 286 285 285 285 284 284 283 283 283 283 283 283 282 282 282 282 282 281 282 281 281 281 281 281 281 281 281 281 281 280 281 281 282 282 281 281 281
285 286 285 286 285 285 284 284 283 283 283 283 282 282 282 282 281 281 281 281 281 281 280 280 280 280 280 280 280 280 280 280 280 280 279 279 280 280 281 280 280 280
285 285 285 285 284 284 283 282 282 282 282 281 281 281 281 280 280 280 279 279 279 279 279 279 279 279 279 278 278 278 278 279 279 278 278 278 278 278 279 279 279 279
285 284 284 283 283 282 281 281 280 280 280 279 279 279 280 279 278 278 278 278 278 278 278 278 277 277 277 277 277 277 276 277 277 277 277 277 277 277 278 278 278 278
284 283 283 283 282 281 280 279 279 279 279 278 278 278 277 278 277 277 277 277 276 277 276 276 276 276 276 276 276 276 275 276 276 276 277 277 276 277 277 277 277 276
283 283 283 282 281 280 278 278 278 278 277 277 277 276 276 276 276 276 276 276 275 275 275 275 275 275 275 275 275 275 275 275 276 276 276 276 276 276 276 276 276 276
283 283 282 281 280 278 277 277 277 276 276 276 275 275 275 275 275 275 275 274 274 274 274 274 274 274 274 274 274 274 275 276 276 276 276 276 276 276 276 276 275 275
282 282 281 280 279 278 277 276 275 275 274 274 274 274 274 274 273 273 274 273 273 273 273 273 273 273 273 273 273 274 275 276 276 276 275 276 276 275 275 276 275 275
281 280 279 278 277 276 275 275 274 274 273 273 273 273 272 272 272 272 272 272 272 272 272 272 272 272 273 273 274 275 275 275 275 275 275 275 275 275 275 275 275 275
279 278 277 276 275 274 274 273 273 272 272 272 272 272 271 271 271 271 271 271 271 271 271 271 271 271 271 272 273 274 275 274 274 274 274 274 274 274 275 275 275 275
278 277 276 275 274 273 272 272 272 271 271 271 270 270 270 270 270 270 270 270 270 270 270 270 271 271 270 272 274 274 274 274 274 274 274 274 273 273 274 274 274 274
276 275 274 273 273 272 271 270 270 270 270 269 269 269 268 268 269 269 269 269 269 269 269 270 270 270 270 273 274 275 274 274 274 273 274 273 273 273 273 273 273 273
275 274 273 272 271 270 269 269 268 268 268 268 268 268 268 268 268 268 268 269 268 268 269 269 269 269 271 272 273 274 275 274 273 273 273 273 273 273 272 272 271 271
274 273 272 270 270 269 268 267 267 268 267 267 267 267 267 267 268 267 267 268 267 267 267 268 268 269 270 272 273 274 274 274 273 273 273 272 272 272 271 271 270 270
272 272 271 270 269 268 268 267 267 267 267 267 267 267 267 266 266 266 266 266 266 266 266 267 267 268 270 271 273 273 274 275 274 273 272 272 271 271 270 270 270 270
271 271 270 269 267 267 267 267 267 267 266 267 267 267 266 266 266 265 265 264 265 265 265 265 266 268 270 271 272 273 274 274 273 272 271 270 271 271 270 270 270 270
271 270 269 268 267 267 266 267 266 266 266 266 265 266 266 265 265 265 264 264 264 264 264 264 266 268 269 270 271 273 274 272 271 270 270 270 270 270 270 271 271 271
271 270 268 268 267 266 266 266 266 265 265 265 264 265 265 265 264 264 264 263 263 263 262 263 264 266 268 270 271 272 272 270 270 270 270 269 270 270 271 271 271 271
270 269 268 267 266 266 266 267 266 266 265 264 264 264 264 264 263 263 263 263 262 262 262 262 262 265 267 269 270 271 271 270 270 269 269 269 270 270 271 271 272 273
269 268 267 266 266 266 265 265 265 264 265 264 263 263 263 263 262 262 262 262 262 262 262 262 262 264 266 268 270 271 271 270 270 269 269 269 270 270 271 271 272 273
268 266 266 265 265 265 264 264 264 263 262 263 263 263 263 263 262 262 261 261 262 261 261 262 262 263 264 268 269 271 272 271 270 269 269 269 270 270 270 271 272 272
Wind_Speed
7 7 8 7 7 7 7 7 6 6 6 5 5 5 5 4 4 5 5 5 6 5 6 6 6 6 5 5 6 4 4 5 4 5 5 5 5 5 5 6 6 5
8 8 7 7 7 6 6 6 6 6 5 5 4 4 4 3 3 3 4 4 4 4 4 4 5 5 5 5 5 4 4 4 5 4 5 5 5 5 5 6 5 6
7 7 7 8 7 8 7 6 5 5 5 5 4 4 3 3 3 4 4 4 4 4 5 4 4 4 4 4 4 3 4 4 4 4 4 4 4 4 5 5 5 6
7 7 7 7 7 7 5 5 5 5 4 4 4 3 3 3 3 4 3 4 4 4 4 4 4 4 4 4 5 3 4 3 3 4 5 4 4 4 5 5 5 5
7 6 6 6 6 6 5 6 6 5 5 4 3 3 3 3 3 3 4 4 3 4 4 4 4 4 4 5 5 4 4 4 4 4 5 5 4 4 5 5 6 6
6 6 6 6 5 5 6 6 5 4 4 4 3 3 3 3 4 4 4 5 4 4 5 5 5 5 5 5 5 4 4 4 4 5 5 5 5 5 4 5 6 7
7 6 6 6 6 6 6 5 4 4 4 3 3 3 3 4 4 4 4 4 5 4 5 5 5 5 5 5 4 5 5 5 5 5 6 5 5 6 5 5 6 7
7 6 6 6 6 5 5 5 4 4 3 3 3 3 3 3 4 3 4 4 4 4 4 4 5 5 5 5 5 5 5 4 5 6 6 6 5 6 6 5 6 7
7 6 6 6 6 5 5 4 4 4 3 3 3 2 2 3 3 3 3 3 3 3 4 4 5 5 5 5 5 6 6 6 6 6 6 6 7 7 7 7 7 7
7 6 6 6 5 4 5 4 3 3 3 2 2 2 2 2 2 2 3 3 3 4 4 4 5 5 5 5 5 6 6 7 6 7 6 7 7 7 8 7 8 8
7 6 6 6 5 4 5 4 3 3 2 2 2 1 1 1 2 2 2 3 3 4 4 4 5 5 5 5 5 5 6 6 7 6 6 7 7 7 7 8 8 8
7 6 6 6 5 5 4 3 3 2 2 2 1 1 1 1 1 2 2 3 3 3 4 4 5 5 5 5 5 6 6 6 6 6 6 7 7 7 7 7 8 8
6 6 5 5 5 4 3 3 2 2 2 2 1 0 1 0 1 1 2 2 3 3 4 4 5 4 4 5 5 6 6 6 6 7 7 6 6 7 7 7 8 8
6 5 5 5 4 4 3 2 2 2 2 2 1 1 1 1 1 1 1 2 2 3 4 4 4 4 4 4 5 6 6 6 7 7 7 7 8 7 7 8 8 8
6 5 5 5 4 4 3 2 2 2 2 2 1 1 1 1 1 1 2 2 2 3 4 4 4 3 3 4 6 7 7 7 7 8 8 9 9 9 8 8 8 8
6 5 5 5 4 4 3 3 3 2 2 2 2 1 1 1 1 1 1 2 3 3 4 3 3 2 4 10 10 8 8 7 7 8 8 9 10 10 10 9 9 8
6 6 5 5 4 3 3 3 3 2 2 2 2 1 1 0 1 1 1 2 2 3 4 4 4 3 8 11 11 11 9 8 8 8 8 9 9 10 10 10 9 9
6 6 6 5 4 4 4 3 2 2 2 2 1 1 1 0 1 1 2 2 2 3 4 4 5 6 10 11 12 12 11 9 8 8 8 8 9 9 9 9 9 9
6 6 5 5 4 4 3 3 2 2 2 2 2 1 1 1 1 1 2 2 3 4 5 5 6 7 10 12 12 12 12 11 8 8 8 9 9 9 10 10 9 10
6 6 5 5 4 4 3 3 3 3 2 2 2 2 2 1 1 2 2 3 3 4 5 6 6 7 11 12 12 13 13 11 9 9 8 9 9 9 9 9 10 11
7 6 5 5 5 4 4 4 4 3 3 3 2 2 2 2 1 2 2 3 4 4 5 6 6 9 11 13 13 13 13 12 8 7 7 8 8 9 9 10 11 11
7 6 5 6 5 5 5 5 4 4 3 3 2 2 2 2 2 2 3 4 4 5 5 7 7 10 12 12 13 12 13 8 6 7 8 8 8 9 9 10 10 11
8 7 6 6 6 6 5 5 5 4 3 3 2 2 2 2 2 3 3 4 5 5 6 7 7 9 11 13 13 13 10 6 7 7 8 8 9 9 10 10 10 11
8 7 7 7 6 6 6 5 4 3 3 3 3 3 3 3 2 3 4 4 5 6 5 6 7 9 12 13 13 12 10 8 7 7 8 8 9 10 9 10 12 18
7 7 7 7 7 6 5 5 5 4 3 3 2 2 2 2 3 3 3 4 5 6 8 9 8 9 11 12 12 12 9 7 7 7 8 8 9 10 10 10 13 14
6 7 7 6 6 5 5 4 4 3 3 3 2 2 2 2 3 3 4 4 5 6 6 6 7 7 8 12 12 12 11 8 7 7 8 9 9 10 11 11 11 11
Wind_Direction
99 99 97 94 91 90 91 92 87 85 79 76 77 70 62 59 44 42 40 40 37 33 29 25 21 19 12 14 8 3 14 10 5 7 355 354 349 350 342 343 336 334
95 95 97 99 98 96 92 91 94 90 84 76 72 71 65 53 41 38 29 27 34 34 26 23 20 18 11 9 2 359 4 3 358 360 342 344 342 337 334 330 323 328
107 106 106 104 106 105 102 96 91 85 81 75 68 59 52 39 33 31 29 16 18 21 18 12 10 8 3 356 344 347 357 347 353 347 333 327 332 327 327 320 320 318
113 110 108 109 110 110 104 100 93 85 80 72 59 53 49 33 29 23 22 17 14 10 10 5 3 360 354 346 338 339 339 330 339 331 320 318 314 312 316 311 305 305
124 118 113 108 106 104 100 94 85 81 79 76 71 53 40 32 23 21 15 9 10 3 2 360 358 353 348 344 338 340 338 336 339 334 324 317 311 315 309 309 307 304
124 119 116 114 109 104 97 92 90 89 85 75 62 47 39 30 27 19 13 9 6 4 0 0 357 353 348 342 335 342 334 335 333 326 318 313 314 315 310 305 307 307
131 128 122 113 107 103 101 96 93 84 72 71 64 48 32 26 23 16 7 5 359 359 359 351 351 347 344 338 336 334 329 326 321 324 321 318 319 317 316 315 313 310
136 131 125 115 112 107 97 95 87 75 67 60 59 48 37 20 20 11 1 355 350 350 349 344 340 338 336 335 333 329 328 328 322 324 322 320 322 321 326 323 318 314
138 132 126 121 113 104 97 92 85 71 58 55 44 44 34 29 11 358 352 348 342 344 343 338 338 335 334 334 330 330 327 328 326 325 325 325 327 326 328 326 322 321
137 132 130 123 113 106 104 93 86 81 62 58 51 41 27 22 13 350 347 348 340 347 344 337 336 336 332 333 330 330 328 325 325 326 324 324 324 324 327 327 324 323
141 140 132 125 118 114 108 102 96 92 79 64 47 45 23 15 357 356 349 346 347 343 334 332 331 328 329 328 328 326 321 319 320 322 321 322 321 321 322 322 322 320
145 140 134 127 120 116 113 107 99 94 94 89 68 31 25 26 4 356 348 345 341 334 322 321 322 322 320 321 323 323 320 318 319 320 321 319 317 319 322 320 317 317
149 143 136 128 122 115 114 115 112 106 116 108 97 100 71 14 2 357 341 348 331 330 319 320 316 316 318 323 321 321 320 320 323 321 319 319 316 317 315 314 313 313
141 136 125 117 117 116 121 124 124 143 139 144 146 140 104 37 2 350 335 335 324 317 314 311 311 313 323 326 326 324 322 322 321 320 317 313 311 310 310 309 309 305
138 127 117 117 121 126 138 154 159 162 162 154 141 125 84 56 353 339 325 323 316 310 305 307 302 311 332 335 327 324 321 317 316 313 312 310 310 310 307 306 303 303
138 129 129 130 140 150 157 169 176 173 171 151 133 99 97 31 335 326 315 314 316 308 306 296 296 294 307 312 315 315 315 311 309 306 306 305 306 308 305 305 304 303
139 136 139 149 150 154 163 180 177 176 159 145 126 110 125 72 287 298 320 309 303 306 301 296 288 285 302 311 314 314 314 308 306 303 300 299 298 301 302 305 305 305
143 141 150 151 154 166 173 174 169 169 161 147 150 142 121 127 275 305 304 304 297 296 292 287 288 290 303 311 313 312 311 307 301 297 296 296 296 296 299 303 304 305
144 151 154 158 165 164 163 171 174 176 171 175 169 148 189 199 219 306 282 295 292 289 288 284 284 294 304 309 310 309 307 304 295 290 290 290 291 294 296 299 302 300
151 154 158 162 161 163 171 184 182 192 177 188 169 188 186 216 239 245 272 281 285 289 286 285 284 291 302 305 306 304 303 301 293 291 287 286 285 287 289 290 292 296
159 164 160 162 165 170 183 190 191 184 187 192 187 188 191 213 230 239 259 272 276 280 284 284 279 286 298 303 302 302 302 304 295 290 285 280 281 281 284 285 286 287
163 163 162 169 171 178 188 193 189 190 191 181 184 197 199 210 234 238 253 264 271 275 274 276 279 287 298 299 300 302 306 305 293 286 282 282 278 280 279 284 285 284
171 165 170 173 176 180 189 194 184 187 191 178 185 207 206 219 228 239 248 262 267 266 269 274 279 286 291 297 301 303 307 296 290 285 282 281 278 280 281 281 280 280
170 169 170 175 175 188 186 188 177 183 181 187 192 194 208 215 237 250 246 250 259 264 265 273 276 281 289 298 302 301 299 295 290 284 280 282 282 279 280 280 279 285
165 169 176 174 181 184 177 177 178 186 175 173 196 199 218 226 237 250 249 258 252 259 268 270 273 277 287 297 299 298 298 290 286 285 283 284 287 286 284 285 288 288
164 170 179 175 176 167 170 179 169 165 181 191 189 210 216 234 242 247 252 261 264 261 260 260 269 274 280 293 296 296 295 290 285 283 284 287 288 288 283 276 275 277